weather.gov     
National Weather Service

Terminal Aerodrome Forecast
NWS Homepage
This page is being discontinued on March 12, 2014.
The same data is available at this site. Please update your bookmarks.
Thank you, and we apologize for the inconvenience.
Please send an email to SR-SRH.Webmaster@noaa.gov with any concerns.


Current Version
Previous Version:    01  02  03  04  05  06  07  08  09  10  11  12  13  14  15  16  17  18  19  20  21  22  23  24  25  26  27  
[Printable]
276
FTUS44 KSHV 310500
TAFMLU
TAF
KMLU 310523Z 3106/0106 06003KT P6SM BKN110 BKN250
     FM311100 08003KT P6SM -RA BKN100 BKN250
     FM311500 09005KT P6SM -RA BKN100 BKN250
     FM312000 08005KT P6SM -RA SCT050 BKN080
     FM010000 08004KT P6SM SCT050 BKN080=


U.S. Dept. of Commerce
NOAA National Weather Service
1325 East West Highway
Silver Spring, MD 20910
E-mail: w-nws.webmaster@noaa.gov
Page last modified: May 16, 2007
NATIONAL WEATHER SERVICE: for Safety, for Work, for Fun - FOR LIFE